CSUNSAT 1 (42715 NORAD) Tracking and Keplerian Element Data

This shows tracking and keplerian element data for the satellite.

Feedback or suggestion? Click here.




ElementValue
Catalog42715
NameCSUNSAT 1
Epoch Orbit9057
Epoch Day352.63225391
Epoch Year2018
RAAN132.6404
Inclination51.6314
Eccentricity0.0003063
Argument of Perigee186.7369
Mean Anonmoly173.3591
Mean Motion15.79513833
Decay Rate0.00045539
L11 42715U 98067LW 18352.63225391 .00045539 00000-0 24745-3 0 9990
L22 42715 51.6314 132.6404 0003063 186.7369 173.3591 15.79513833 90578

Live tracking and technical data element details for CSUNSAT 1 (NORAD 42715). CSUNSAT 1 can be tracked NOW for your location showing map with azimuth and elevation plus other details from your city location.

Track the satellite on the map from your city or location and see movement details for azimuth, elevation, latitude, longitude, range, height, and movement on the map or in text.







IsCatalogInMostPopularTable: catalog: 42715, numindb: 166
Update: records affected: 1



GetName: 42715 CSUNSAT 1

Hit Count: updated at: Wed, 19 Dec 2018 16:02:02 GMT